Dewpoint
72 74 75 75 75 75 76 75 75 75 75 75 75 75 75 75 75 75 75 74 74 75 74 74 74 74 74 74 74 73 73 73 73 73 72 71 70 70 70 70 70 70 70 71 71 71 71 71 70 69 70 70 69 69 69 69 69 69 68 68 68 68 68 68 68 68 67 67 67 67 68 68 70 68 68 68 67 67 66 66 65 63 63 63 65
72 74 75 75 75 75 75 75 75 75 75 75 75 75 75 75 75 75 75 75 74 74 74 74 74 74 74 74 74 73 73 73 73 73 72 72 71 70 69 70 70 70 70 71 71 71 71 70 70 70 69 69 69 69 69 69 69 69 69 70 69 69 68 68 67 67 67 67 67 67 68 68 68 68 68 68 67 66 65 65 65 64 63 65 65
73 74 74 74 75 75 75 75 75 75 75 75 75 74 73 75 74 74 74 74 74 74 74 74 74 74 74 74 74 74 73 73 73 72 72 72 71 70 70 70 70 70 71 71 71 71 71 70 70 70 70 70 69 68 68 68 68 69 69 69 69 68 68 68 68 67 67 67 67 67 67 67 67 67 67 67 67 66 66 65 65 64 62 65 65
72 73 73 74 75 74 75 75 75 75 74 74 74 73 73 74 74 74 74 74 74 74 74 74 74 74 74 74 73 73 73 73 73 73 72 72 71 70 70 70 70 69 70 71 71 71 71 70 70 70 70 70 69 68 68 68 68 68 68 69 69 69 69 68 68 67 66 66 66 66 66 65 65 66 67 66 66 65 65 65 65 65 65 64 65
72 73 73 73 74 74 75 75 75 74 74 74 73 73 73 73 74 74 74 74 74 74 74 74 74 74 74 74 73 73 73 73 72 73 72 72 72 70 70 70 69 70 69 70 71 70 70 70 70 70 69 69 69 68 68 68 68 68 69 69 70 69 69 68 68 67 66 65 65 65 63 64 64 66 66 66 66 65 65 64 64 64 65 64 65
71 72 72 73 74 74 74 74 74 74 74 74 73 73 73 74 74 74 74 74 74 74 74 74 74 74 74 73 73 73 73 73 72 72 73 72 72 72 70 70 69 70 69 69 70 70 70 70 70 70 70 70 69 68 68 68 68 68 69 68 69 69 69 68 68 67 67 66 65 63 63 64 64 63 65 65 66 65 65 64 64 65 65 65 65
72 72 72 73 73 74 74 74 74 74 74 74 74 73 73 74 73 73 72 73 73 74 74 74 74 74 73 73 73 73 72 72 72 73 73 72 72 72 72 70 69 68 69 69 69 70 70 70 70 69 70 69 69 68 68 68 68 68 68 69 69 69 69 69 69 69 69 67 62 62 63 63 64 63 65 66 65 64 64 64 64 64 64 65 64
71 71 71 72 73 74 74 74 74 74 74 74 74 73 74 74 73 72 72 72 72 73 74 74 74 74 74 73 73 73 73 73 72 73 72 72 72 72 72 72 71 69 69 69 68 70 69 69 70 70 70 69 69 68 67 67 68 68 68 68 68 68 69 69 68 69 68 64 62 62 63 64 64 64 66 66 65 66 65 65 65 65 65 64 63
71 71 72 73 73 74 74 74 74 74 74 74 74 74 74 73 73 73 72 72 72 73 74 74 74 74 74 73 73 73 73 72 72 73 72 71 72 72 72 72 72 72 72 72 71 71 70 69 69 70 70 69 69 69 68 68 68 68 69 68 69 69 69 70 69 69 67 63 61 62 63 64 65 65 66 65 65 64 65 65 65 64 64 64 64
71 72 72 73 73 73 74 74 74 74 74 74 74 74 74 73 73 72 72 72 72 73 74 74 74 74 73 73 73 73 72 73 73 73 72 72 72 72 72 72 72 72 72 72 72 71 71 70 70 69 70 70 70 69 68 68 68 69 69 69 69 69 68 68 69 69 63 60 60 61 63 65 63 64 64 65 66 65 64 64 64 63 64 63 63
71 71 72 72 72 73 73 73 74 74 74 74 74 73 73 73 73 73 72 72 73 73 73 73 74 73 73 73 72 72 73 73 73 72 72 72 72 72 72 72 72 72 72 72 72 72 71 70 70 69 70 70 70 70 69 69 69 68 69 69 68 69 67 68 67 64 63 63 63 63 64 66 62 64 66 66 66 65 64 64 64 63 63 63 63
71 71 71 72 73 73 73 73 73 73 74 74 74 73 73 73 73 73 73 73 73 73 73 73 73 73 73 73 72 73 72 72 72 72 72 72 72 72 72 72 72 72 72 71 71 71 71 70 70 69 70 70 70 70 69 69 69 68 68 68 69 69 67 68 65 64 62 61 62 62 62 62 62 63 65 66 66 65 65 63 62 62 63 63 63
70 70 71 71 72 72 72 73 73 73 73 74 74 74 73 73 73 72 72 72 72 72 73 72 72 72 73 73 72 73 73 73 72 72 72 72 73 73 72 73 72 72 71 71 70 70 70 70 70 70 69 70 70 69 69 69 69 68 68 68 69 67 68 68 65 63 62 62 62 63 63 63 64 65 65 65 65 64 64 64 64 63 63 63 63
69 70 70 70 71 72 72 72 72 73 73 73 73 73 73 73 73 72 72 72 72 72 72 72 72 72 73 73 73 73 72 73 72 72 72 73 73 72 72 72 72 71 71 70 70 70 70 70 69 69 70 70 69 69 69 68 68 68 68 68 69 68 68 66 64 63 62 62 63 63 63 65 64 66 65 64 64 64 64 63 63 63 63 62 63
69 69 69 70 70 71 72 72 72 72 73 73 73 73 72 72 72 72 71 72 72 72 72 72 72 73 73 73 73 72 72 72 72 72 72 73 72 72 72 72 72 71 70 70 70 70 70 70 69 69 68 69 69 68 68 68 68 68 69 68 67 68 67 65 63 62 62 62 63 63 63 64 66 66 65 64 64 64 64 63 62 62 62 62 62
68 68 69 69 70 70 70 72 71 72 72 73 72 72 72 72 72 72 71 72 71 72 72 72 72 72 72 73 72 72 72 72 72 72 72 72 72 72 72 72 72 71 71 70 70 70 70 70 69 69 69 70 69 69 68 68 69 68 68 68 67 67 68 67 66 60 62 62 62 63 63 65 67 66 65 65 64 64 63 63 62 62 62 62 62
68 68 68 68 69 69 70 70 71 72 72 72 72 72 72 72 72 72 72 72 72 72 72 72 72 72 72 72 72 72 72 72 72 71 72 72 71 71 71 71 71 71 71 70 70 70 70 70 69 69 70 69 69 69 69 69 68 68 68 67 68 68 68 68 64 61 62 62 62 62 63 64 67 66 65 63 63 63 62 62 61 61 61 62 62
67 68 68 68 68 69 69 69 69 69 70 71 72 72 72 72 71 71 72 72 72 72 72 72 72 72 72 72 72 72 72 72 72 71 72 71 71 71 71 70 70 70 70 70 70 69 69 69 69 69 69 69 69 69 69 68 68 68 68 68 68 68 68 69 61 62 62 63 61 63 64 67 67 65 64 64 64 63 62 61 61 61 61 61 62
66 67 67 67 67 67 68 68 69 69 69 69 70 71 72 72 72 71 71 72 72 72 72 72 73 73 72 72 72 72 72 72 72 72 71 71 71 71 70 70 70 70 70 70 70 69 69 69 69 69 69 69 69 69 69 68 68 67 68 68 68 68 68 66 60 62 62 62 62 63 64 67 66 65 65 64 64 63 62 61 61 61 61 61 61
65 65 65 65 66 66 68 68 68 68 68 68 70 71 71 72 72 72 72 72 72 72 71 70 71 72 72 71 71 72 72 72 72 72 71 71 70 69 70 70 70 70 70 69 69 69 69 69 70 69 69 69 69 69 69 68 68 68 68 68 68 68 65 63 61 62 62 62 63 63 66 67 66 65 65 64 63 61 61 61 61 61 61 61 61
62 63 63 64 65 66 67 67 68 68 68 68 69 71 71 71 72 72 72 72 72 72 72 71 70 72 72 71 70 71 71 71 71 71 71 70 70 70 70 70 70 70 70 70 69 69 69 69 69 70 69 69 69 69 69 69 68 68 68 68 68 65 64 62 62 64 63 63 64 64 67 67 65 64 65 64 63 62 61 61 61 61 61 61 61
53 58 62 64 64 65 65 66 67 67 68 68 69 71 71 71 70 70 71 71 72 72 72 71 72 71 71 71 71 71 68 68 69 71 69 70 70 70 70 70 70 70 69 70 69 69 69 69 70 69 69 69 69 67 67 68 68 68 68 68 65 65 63 63 61 62 63 63 64 66 67 66 65 64 64 64 62 62 61 61 61 61 61 61 61
43 45 48 55 63 64 65 66 66 67 67 68 69 70 70 69 70 70 71 72 72 72 71 70 70 71 71 71 70 68 68 68 68 68 66 67 70 70 71 71 70 70 69 69 69 69 69 69 69 69 69 69 68 66 66 65 65 68 69 65 64 64 63 63 61 61 62 63 63 67 67 66 65 64 64 63 62 61 62 62 61 61 60 60 60
43 43 45 51 55 61 64 65 66 66 66 67 68 68 68 68 68 68 69 69 69 70 69 69 67 70 69 70 68 68 68 68 69 69 68 67 68 70 70 71 70 70 69 69 69 69 69 68 68 68 68 69 66 65 66 66 65 64 64 64 64 64 63 62 60 61 61 64 64 67 67 66 66 64 63 63 62 62 62 62 61 61 60 60 60
44 43 45 49 47 51 53 61 66 67 68 69 68 67 67 68 68 68 68 68 68 67 67 67 66 67 68 69 69 68 68 67 67 67 67 67 67 68 70 69 69 69 70 67 66 67 66 65 65 66 64 65 64 62 65 65 65 65 64 64 64 63 62 62 60 61 61 63 65 67 67 66 66 63 63 63 62 61 62 62 61 61 61 60 61
49 38 40 39 46 47 49 51 60 67 67 67 67 68 68 67 68 68 68 68 68 68 68 67 68 67 67 68 69 69 68 68 67 67 67 67 68 67 69 69 68 68 68 67 66 65 64 63 64 62 63 63 62 62 63 64 64 63 63 63 63 62 62 61 61 61 62 63 65 67 66 66 65 63 63 63 62 61 62 62 61 61 60 60 61
44 44 42 43 44 45 46 47 50 56 65 66 67 66 67 67 68 68 68 68 68 67 67 67 68 68 68 68 68 69 68 68 67 67 67 67 67 67 68 68 67 68 68 66 66 66 65 62 61 61 61 61 61 61 63 63 63 62 62 62 62 61 62 59 61 61 63 64 65 66 66 66 65 63 63 63 63 62 62 62 62 62 60 60 60
40 42 42 38 41 42 44 45 52 51 57 65 65 66 66 67 68 68 67 70 68 67 67 66 67 67 68 68 68 67 68 68 67 66 67 66 67 67 67 68 66 66 67 63 64 65 64 62 60 59 58 59 59 59 62 62 62 61 61 62 62 62 61 61 61 61 62 63 64 66 66 66 65 65 63 63 63 63 63 62 63 61 60 60 59
41 45 46 36 36 44 46 48 50 50 50 58 63 64 65 66 65 65 66 69 67 67 66 67 67 67 67 68 68 65 66 67 68 67 67 67 66 67 66 68 67 65 64 64 62 63 62 61 59 58 58 59 59 56 61 62 62 61 62 61 61 60 61 60 61 61 62 63 64 66 66 66 65 65 64 63 62 63 63 62 62 61 61 60 60
46 42 40 45 41 42 44 47 52 52 54 56 56 59 60 62 65 65 66 67 66 65 66 67 67 66 67 67 68 66 66 66 67 67 66 66 67 67 66 67 67 68 66 62 64 62 61 61 61 59 58 59 57 55 57 60 61 61 61 61 61 61 62 60 61 61 62 63 64 64 66 65 64 65 65 64 63 63 63 62 63 62 61 61 61
46 41 42 45 52 43 45 47 49 58 54 54 57 54 56 59 61 61 62 63 64 65 66 66 66 66 66 67 67 68 67 66 66 65 66 67 66 67 67 67 67 67 68 67 68 66 63 61 62 61 60 58 56 56 52 58 59 60 60 60 60 60 60 60 59 62 62 62 63 64 64 65 64 64 64 65 64 63 63 62 63 62 61 62 61
45 47 49 49 49 47 47 50 51 56 53 50 53 54 51 55 60 58 59 61 64 64 64 64 66 66 67 67 67 67 67 66 66 66 66 66 66 67 67 66 66 67 67 68 67 67 66 66 65 64 63 60 56 57 56 57 57 58 59 59 60 59 61 61 59 60 62 62 62 63 62 63 65 64 64 64 65 65 63 63 64 62 61 61 61
49 49 50 49 50 49 49 51 51 51 49 53 50 49 54 55 57 57 60 62 62 61 61 62 62 61 64 67 66 67 66 66 66 67 67 67 66 67 66 66 67 67 67 68 68 68 67 66 64 64 63 63 61 57 58 59 58 57 57 59 60 59 59 60 59 59 62 63 62 62 62 62 63 65 63 64 64 65 65 65 64 63 62 61 60
46 48 50 52 54 54 54 53 51 53 54 52 50 48 53 55 54 54 59 54 61 56 61 59 60 58 60 65 68 67 66 67 67 66 67 66 66 67 67 66 67 67 67 67 66 67 67 67 65 64 64 61 60 58 59 58 59 59 58 58 59 60 59 59 60 59 62 63 62 62 62 62 63 63 63 65 65 64 64 66 65 63 62 62 61
47 50 49 50 53 53 55 55 53 49 49 51 52 53 50 49 50 53 53 55 61 56 57 59 58 59 59 63 66 66 67 66 66 66 65 65 66 66 67 67 68 68 67 66 67 67 67 66 66 65 63 61 58 60 58 58 57 56 57 59 58 59 60 59 60 60 60 63 63 62 62 62 62 61 62 63 65 64 64 65 66 65 63 63 61
48 50 51 51 50 53 52 50 51 52 53 54 55 54 50 50 54 61 53 56 55 57 57 57 57 58 60 63 63 64 65 67 67 66 65 64 65 66 66 66 68 68 67 67 67 66 66 66 67 65 63 61 56 57 59 58 57 56 57 58 58 60 59 59 59 60 59 60 62 63 63 63 61 61 62 62 63 63 64 65 65 66 66 64 62
50 49 49 50 50 51 51 50 52 53 52 53 52 52 53 52 52 53 54 52 49 48 49 55 59 58 61 61 62 64 64 64 66 66 65 65 66 65 65 66 68 67 66 66 66 66 66 67 66 65 65 62 58 55 56 58 58 58 57 57 58 58 59 59 60 60 59 59 59 62 63 63 62 64 61 60 62 62 64 64 65 64 65 64 64
49 48 50 49 48 48 49 51 53 53 53 52 52 53 56 53 54 54 57 50 51 51 53 52 52 58 58 59 59 61 63 62 64 66 66 67 66 65 65 65 66 66 66 66 65 66 65 65 65 65 64 63 61 58 56 59 60 59 58 57 57 57 57 59 59 61 59 59 60 59 61 63 63 62 61 60 60 61 62 63 64 64 65 63 64
48 49 49 50 50 51 53 55 54 54 55 55 55 56 54 54 54 54 54 53 53 53 52 52 55 55 57 60 60 59 60 59 62 63 62 63 65 64 65 66 66 66 65 66 66 66 65 65 65 64 64 64 64 63 62 60 60 59 58 57 56 55 57 58 59 59 60 59 59 60 58 60 63 62 61 60 60 60 61 61 62 62 63 64 64
48 49 49 48 50 52 52 54 53 53 54 54 55 54 54 53 48 49 49 52 52 54 52 53 55 54 57 56 59 58 58 59 59 60 62 62 62 63 64 64 65 64 63 64 65 65 64 65 64 64 63 65 64 64 63 62 61 60 59 57 55 55 55 56 57 59 59 59 59 60 59 58 59 62 61 61 60 60 59 60 62 62 61 63 64
47 48 47 46 51 52 53 52 52 55 52 54 54 53 51 45 47 51 44 46 53 55 53 53 55 55 56 55 56 58 57 58 59 59 58 62 61 62 62 63 64 64 64 65 66 66 65 65 64 65 64 64 65 66 65 63 62 60 59 57 54 55 55 55 54 57 59 59 59 59 59 58 57 57 58 59 60 61 59 59 60 61 61 62 63
46 47 45 46 52 52 50 53 54 54 55 53 52 50 50 49 43 44 45 43 48 51 51 51 54 56 56 56 56 56 53 55 59 58 58 59 59 59 60 62 63 62 63 63 63 64 64 65 65 64 66 64 63 65 66 63 61 59 56 57 56 56 56 55 54 54 55 57 58 58 59 59 58 57 57 57 58 60 60 59 61 61 61 61 62
45 47 45 49 52 50 50 54 53 52 54 52 47 47 51 52 49 50 48 48 51 51 49 52 56 52 53 57 58 53 53 53 53 57 58 59 58 58 59 59 61 62 61 61 61 62 63 63 64 63 63 64 65 65 65 62 61 61 60 59 55 52 53 56 56 55 55 54 56 58 58 58 57 56 57 57 57 58 60 60 60 61 60 61 61
46 47 49 50 51 51 52 54 51 53 52 54 50 50 52 53 52 50 53 52 51 56 53 54 52 53 53 54 53 54 54 52 53 54 54 56 56 58 58 58 59 61 62 61 60 61 61 62 63 63 64 62 63 64 65 65 63 61 56 57 56 53 50 52 54 56 56 54 55 56 57 56 56 54 57 57 57 58 60 61 60 61 61 60 61
47 47 50 51 52 52 55 52 53 51 51 55 52 53 53 51 51 53 54 53 53 51 48 45 52 53 53 51 50 52 53 54 53 54 56 55 56 57 58 58 58 58 60 60 60 61 62 62 62 61 62 63 62 62 63 65 64 63 59 57 54 52 52 55 56 55 58 54 54 55 57 56 55 53 55 57 57 58 58 60 61 60 61 60 61
48 48 49 51 51 52 55 54 54 50 52 51 52 52 52 50 51 51 51 51 45 45 45 47 47 47 48 52 53 51 52 50 53 52 54 56 55 55 56 57 57 58 58 59 60 59 60 62 62 62 61 62 63 63 63 63 63 63 62 60 59 56 56 58 57 55 61 57 55 54 55 55 54 53 53 55 56 57 57 57 60 61 61 60 61
49 50 50 50 50 52 55 55 53 50 52 51 52 54 53 53 53 52 52 51 46 47 48 50 51 49 52 49 51 54 51 52 53 54 55 55 55 56 56 57 57 57 58 57 57 59 59 59 60 62 62 61 62 62 62 62 63 63 63 62 61 61 61 59 56 56 54 58 58 57 55 54 54 53 53 53 54 55 57 57 57 58 59 60 60
50 51 51 51 50 52 55 54 53 51 50 51 51 53 53 55 54 54 54 52 47 48 50 49 53 53 51 52 52 54 53 54 52 52 53 53 55 54 55 56 56 56 58 56 55 56 58 59 61 61 63 62 62 62 62 62 62 61 63 62 62 62 61 59 61 59 58 54 53 56 58 58 55 54 54 53 53 53 56 57 56 56 57 59 60
51 51 51 51 50 52 54 54 53 49 49 52 50 53 54 53 50 48 51 50 48 50 51 50 50 53 51 51 51 52 51 53 54 54 54 54 56 55 55 55 55 55 58 56 55 56 55 56 57 57 60 62 62 62 62 62 62 62 60 61 61 61 61 61 62 61 58 55 54 53 54 57 58 57 55 54 54 54 54 56 56 56 56 58 59
52 52 50 51 51 51 54 53 53 49 49 50 50 51 54 52 49 48 49 47 50 50 49 49 49 49 50 51 51 50 53 53 52 53 49 54 54 53 54 54 54 55 56 55 55 55 55 55 56 57 58 59 62 63 63 63 63 62 62 61 59 59 59 59 60 60 59 58 55 56 54 55 56 56 58 57 55 55 54 56 56 55 55 56 58
52 51 51 51 52 52 53 53 53 51 51 49 49 49 54 49 49 48 50 46 49 49 47 48 48 49 49 49 51 52 54 55 54 52 51 52 53 55 53 53 54 55 55 55 55 55 55 56 56 55 56 57 58 61 61 61 62 62 62 61 60 59 58 57 57 59 58 57 56 56 55 55 55 56 57 59 58 55 55 55 56 55 55 56 56